Location: Red n Blue Observatory
(38.4831°N, 87.0953°W)
Time: 17:03:08
(UTC-04:00)

ARIANE 6 FM1 Upper Stage - Visible Passes

Search period start: 19 September 2024 00:00
Search period end: 29 September 2024 00:00
Orbit: 566 x 594 km, 62.0° (Epoch: 19 September)

Date Brightness Start Highest point End Pass type
(mag) Time Alt. Az. Time Alt. Az. Time Alt. Az.
19 Sep 5.8 04:55:28 10° N 04:57:52 14° NE 05:00:16 10° ENE visible
19 Sep 2.7 06:33:23 10° NW 06:37:45 81° WSW 06:42:06 10° SSE visible
19 Sep 4.0 20:35:01 10° SSE 20:38:07 20° ESE 20:40:51 12° ENE visible
19 Sep 4.0 22:13:11 10° WSW 22:17:12 39° NW 22:17:18 39° NW visible
20 Sep 5.2 04:59:32 10° N 05:02:51 21° NE 05:06:09 10° E visible
20 Sep 3.0 06:38:13 10° NW 06:42:25 47° WSW 06:46:35 10° SSE visible
20 Sep 3.4 20:38:51 10° S 20:42:40 33° ESE 20:46:33 10° NE visible
20 Sep 4.8 22:18:27 10° WSW 22:22:02 26° NW 22:23:53 19° N visible
21 Sep 4.5 05:05:41 21° N 05:07:44 31° NE 05:11:36 10° ESE visible
21 Sep 3.7 06:43:16 10° WNW 06:47:00 28° WSW 06:50:43 10° S visible
21 Sep 2.7 20:43:06 10° SSW 20:47:16 58° ESE 20:51:30 10° NE visible
21 Sep 5.4 22:24:03 10° W 22:26:57 18° NW 22:29:53 10° N visible
22 Sep 3.7 05:12:49 47° ENE 05:12:49 47° ENE 05:16:45 10° SE visible
22 Sep 4.3 06:49:19 12° W 06:51:31 17° WSW 06:54:20 10° SSW visible
22 Sep 2.8 20:47:40 10° SW 20:51:55 83° NW 20:56:15 10° NNE visible
22 Sep 5.8 22:30:11 10° WNW 22:31:56 12° NW 22:33:42 10° NNW visible
23 Sep 4.7 05:20:06 21° SE 05:20:06 21° SE 05:21:37 10° SE visible
23 Sep 3.7 20:52:30 10° SW 20:56:38 49° NW 21:00:50 10° NNE visible
24 Sep 4.6 20:57:36 10° WSW 21:01:25 31° NW 21:05:17 10° NNE visible
25 Sep 5.2 21:02:59 10° W 21:06:15 21° NW 21:09:33 10° N visible
26 Sep 5.6 21:08:46 10° WNW 21:11:10 14° NW 21:13:34 10° N visible
27 Sep 6.0 21:16:00 10° NW 21:16:08 10° NW 21:16:17 10° NNW visible
